Погода Верховье Лотты

Погода Верховье Лотты : погода сейчас, прогноз погоды и архив. Всё, что Вы хотите узнать о погоде Верховье Лотты!

Поиск расширенной информации на нашем сайте:

Другие новости

Новости СМИ2

Главная страница сайта

Новости сайта

03.07.2017

Напоминаем, что на нашем специализированном сайте Метеоцентр.Азия вы можете получить высокодетализированные автоматические прогнозы погоды по пунктам России, СНГ и мира в авиационном формате (включающие направление и скорость ветра, видимость, явления погоды, количество и форму облачности, нижнюю и верхнюю границу облачности).


Погода Верховье Лотты - сегодня

Время (UTC), дата Ветер
(°,м/с) 
Видим.   Явления Облачность Т
(°С)
Тd
(°С)
f(%) Тe
(°С)
Pmin
(гПа)
dP
(гПа)
Po
(мм)
O2
(г/м3)
Тmin Tmax R s Состояние
почвы
15 13.02.18 тихо ()   н/о    н/о 
-10.3 -11.8 89 -10  1015.7  0.1  750  315           
21 13.02.18 180 (Ю) 1-2  н/о    н/о 
-6.4 -7.4 93 -6  1017.5  1.1  752  311           
00 14.02.18 200 (Ю) 2-6  н/о    н/о 
-4.2 -5.7 89 -5  1017.8  0.4  752  308           
09 14.02.18 190 (Ю) 2-4  н/о    н/о 
-1.8 -4.1 84 -3  1018.3  0.2  753  306           
12 14.02.18 190 (Ю) 2-4  н/о    н/о 
-1.7 -4.1 84 -3  1018.1  0.1  753  306           
15 14.02.18 200 (Ю) 2-5  н/о    н/о 
-2 -3.8 87 -3  1018.3  0.1  753  306           
21 14.02.18 240 (ЮЗ) 2-6  н/о    н/о 
-1.5 -4.9 78 -2  1018  -0.1  753  305           
00 15.02.18 210 (ЮЗ) 1-2  н/о    н/о 
-2.1 -3.6 89 -2  1017.8  -0.2  752  306           
09 15.02.18 220 (ЮЗ) 1-2  н/о    н/о 
-2.1 -3.9 87 -2  1017.7  0.6  752  306           
12 15.02.18 тихо ()   н/о    н/о 
-1.8 -3.9 86 -2  1018.1  0.4  753  306           
15 15.02.18 210 (ЮЗ) 1-1  н/о    н/о 
-2.8 -4 91 -2  1018.3  0.4  753  307           
21 15.02.18 220 (ЮЗ) 1-2  н/о    н/о 
-3.2 -5.6 83 -3  1018.8  0.1  753  308           
00 16.02.18 210 (ЮЗ) 1-3  н/о    н/о 
-3.5 -5.1 89 -3  1018.8  0.1  753  308           
09 16.02.18 240 (ЮЗ) 1-4  н/о    н/о 
-3.9 -7.3 77 -3  1019.3  0.9  753  309           
12 16.02.18 250 (З) 2-6  н/о    н/о 
-3.3 -7.2 74 -4  1019.3  753  308           
15 16.02.18 тихо ()   н/о    н/о 
-4.4 -7.6 78 -4  1019.7  0.3  754  309           
21 16.02.18 тихо ()   н/о    н/о 
-5.9 -7 92 -6  1020.3  0.2  754  311           
00 17.02.18 250 (З) 1-4  н/о    н/о 
-4.4 -6 89 -4  1020.7  0.5  754  310           
03 17.02.18 тихо ()   н/о    н/о 
-5.1 -6.4 91 -5  1021.6  0.8  755  311  -6.1         
09 17.02.18 тихо ()   н/о    н/о 
-4.9 -6.6 88 -5  1023.4  756  311           
12 17.02.18 тихо ()   н/о    н/о 
-4.7 -6.8 85 -5  1024.1  0.7  757  311           
15 17.02.18 250 (З) 1-1  н/о    н/о 
-10.3 -11.8 89 -10  1024.9  0.5  757  318           
21 17.02.18 тихо ()   н/о    н/о 
-15.7 -17.6 85 -16  1026.4  0.4  758  326           
00 18.02.18 тихо ()   н/о    н/о 
-17.5 -19.7 83 -18  1026.6  0.1  758  328           
03 18.02.18 тихо ()   н/о    н/о 
-19.2 -21.6 81 -19  1026.8  0.1  758  330  -19.2         
Время (UTC), дата Ветер
(°,м/с) 
Видим.   Явления Облачность Т
(°С)
Тd
(°С)
f(%) Тe
(°С)
Pmin
(гПа)
dP
(гПа)
Po
(мм)
O2
(г/м3)
Тmin Tmax R s Состояние
почвы

Для получения пояснительной информации подведите курсор к названию столбца.

ПОГОДА Верховье Лотты - архив

Всё, что Вы хотите узнать о погоде Верховье Лотты - удобно и подробно!

Выберите нужную дату (начиная с 1 января 2015* года) и нажмите кнопку "Найти".
Будут отображены архивные сводки погоды по пункту Верховье Лотты, начиная с указанной даты.


Отображать данные в формате CSV (для использования в таблицах Excel)


Внимание! Наш архив погоды предназначен исключительно для личного некоммерческого использования в познавательных целях. Если Вам необходимы официальные справки о состоянии погоды (для производственных, юридических, коммерческих и т.п. целей), обращайтесь в органы Росгидромета.

*Примечание: данная дата относится к архиву по метеостанциям СССР (Россия, СНГ, Балтия).
Архив по метеостанциям Зарубежной Европы и Азии (кроме Китая) хранится 10 дней, по другим регионам земного шара (Китай, Африка, Америка, Австралия, Океания) - 1 день.

Верховье Лотты - район местоположения метеостанции


Название, широта, долгота, высота метеостанции:
Верховье Лотты 68.4°ш. 28.7°д. 120 м над ур. моря [Российская Федерация]

Дополнительная информация

В oтличие oт бoльшинства пoгoдных сайтoв мы публикуем пoдрoбную метеoинфoрмацию в детальнoм прoфессиoнальнoм фoрмате.

Характеристики температуры и влажнoсти вoздуха измеряются на высoте 2 м в тени вдали oт зданий и деревьев.
Скoрoсть ветра измеряется на высoте 10 м (на урoвне рoста челoвека скoрoсть ветра ниже в 1.5-2 раза). Если метеoстанция нахoдится в гoрoде или в лесу, тo скoрoсть ветра занижена на 2-4 м/с пo сравнению с oткрытым местoм. Скoрoсть ветра над акватoриями крупных рек и oзёр, а также на вершинах хoлмoв на 2-5 м/с выше, чем в oбычных услoвиях.
Атмoсфернoе давление в разных тoчках местнoсти мoжет значительнo oтличаться oт давления на метеoстанции, в зависимoсти oт услoвий рельефа (при пoдъёме на 10 м давление пoнижается примернo на 1 мм рт.ст.).